Location: Flotzheim
(48.8375°N, 10.8136°E)
Time: 03:46:06
(UTC+00:00)

CZ-4C R/B - Pass Details

Date: 23 January 2021
Orbit: 617 x 1385 km, 63.4° (Epoch: 26 February)

Event Time Altitude Azimuth Distance (km) Brightness Sun altitude
Rises 17:00:32 0° 265° (W) 3,186 7.1 -9.9°
Reaches altitude 10° 17:03:03 10° 276° (W) 2,363 5.7 -10.3°
Maximum altitude 17:07:49 30° 337° (NNW) 1,565 3.7 -11.1°
Drops below altitude 10° 17:13:29 10° 37° (NE) 2,823 4.4 -12.0°
Enters shadow 17:13:57 - 39° (NE) 2,975 4.5 -12.0°
